Temperature
13 13 13 14 17 18 19 21 21 21 22 22 22 22 23 24 25 24 21 21 20 20 19 18 17 17 17 17 16 16 16 16 16 16 16 15 15 15 15 15 14 14 14 13 13 13 13 13 13
12 13 13 15 17 18 20 21 21 21 22 20 20 21 22 23 23 22 21 21 20 19 18 17 17 16 16 16 16 16 16 16 15 15 15 15 15 15 14 14 14 13 13 13 13 13 13 13 13
12 12 14 16 17 19 21 21 21 21 20 20 21 21 22 22 21 20 20 20 19 19 18 17 16 16 16 16 16 16 16 15 15 15 15 15 15 14 14 14 13 13 13 13 13 13 13 13 13
12 12 14 15 17 19 21 21 20 20 20 19 20 21 21 20 19 20 20 20 19 18 17 17 16 16 16 15 16 15 15 15 15 15 15 15 14 14 14 13 13 13 13 13 12 12 12 13 12
11 13 14 15 17 19 20 20 19 20 20 20 20 21 21 19 19 19 19 19 18 17 16 16 16 16 16 15 15 15 15 15 15 15 14 14 14 14 13 13 13 13 13 12 12 12 12 12 12
12 13 14 16 17 19 20 19 19 20 20 19 19 20 20 18 19 19 18 18 17 16 16 16 16 16 15 15 15 15 15 15 14 14 14 14 13 13 13 13 13 12 12 12 12 12 12 12 12
12 13 14 16 17 18 19 19 18 19 20 19 19 20 20 18 18 18 17 16 16 16 15 15 15 15 15 15 15 15 15 14 14 14 14 13 13 13 13 13 12 12 12 12 12 11 11 11 12
11 13 13 15 16 17 19 17 17 18 19 18 18 20 20 17 17 16 15 15 15 15 15 15 15 15 15 15 15 15 14 14 14 14 13 13 13 13 12 12 12 12 12 12 11 11 11 11 11
10 11 13 15 16 17 17 17 16 16 17 17 17 18 17 16 16 15 15 14 15 15 15 15 15 15 15 14 14 14 14 14 13 13 13 13 12 12 12 11 12 11 11 11 11 11 11 11 11
10 11 13 15 16 16 16 16 16 16 17 17 16 16 16 15 15 15 15 15 15 15 14 14 14 14 14 14 14 14 13 13 13 13 12 12 12 11 11 11 11 11 11 11 11 11 11 11 10
11 11 13 14 14 14 14 14 14 16 16 17 16 15 15 14 14 15 15 15 15 14 14 14 14 14 14 14 14 13 13 13 13 12 12 12 11 11 11 11 11 11 10 10 10 10 10 10 10
11 12 12 12 12 12 13 13 14 14 16 16 15 15 14 14 14 14 14 14 14 14 14 14 14 14 14 14 14 13 13 13 13 12 12 12 12 11 11 11 10 10 10 10 10 10 10 10 10
10 11 11 11 11 11 12 12 13 14 14 14 14 14 14 14 14 14 14 14 14 14 14 13 14 14 14 14 14 13 13 13 13 12 12 12 12 11 11 11 11 10 10 10 10 10 10 10 10
10 10 10 11 11 11 11 12 13 14 14 14 14 14 14 14 14 13 13 13 14 14 13 13 13 14 14 14 13 13 13 13 12 12 12 12 11 11 11 11 11 10 10 10 10 10 10 10 10
8 9 10 11 11 11 11 12 13 14 14 14 14 14 13 13 13 13 13 13 14 13 13 13 13 14 13 13 13 13 13 13 12 12 12 12 11 11 11 11 11 10 10 10 10 10 10 10 10
8 9 9 11 11 11 10 11 14 13 13 13 14 14 13 13 13 14 13 13 13 13 13 13 13 13 13 13 13 13 13 12 12 12 12 12 11 11 11 11 11 10 10 10 10 10 10 10 10
8 9 10 11 11 11 10 11 13 13 13 13 13 14 13 13 13 14 13 13 13 13 13 13 13 13 13 13 13 13 12 12 12 12 12 12 11 11 11 11 11 10 10 10 10 10 10 10 10
9 9 9 10 11 10 10 11 12 12 13 13 13 13 13 13 13 13 13 13 13 13 13 13 13 13 13 13 12 12 12 12 12 12 12 12 11 11 11 11 11 10 10 10 10 10 10 10 10
8 8 9 10 10 10 10 11 11 12 13 13 13 13 13 13 13 13 13 12 12 12 12 12 12 13 13 12 12 12 12 12 12 12 12 12 11 11 11 11 11 10 10 10 10 10 10 10 9
7 7 8 9 10 10 10 10 11 12 13 13 13 13 13 13 13 12 12 12 12 12 12 12 12 12 12 13 13 12 12 12 12 12 12 12 11 11 11 11 11 11 10 10 10 10 9 9 9
7 8 8 8 9 10 9 10 12 12 13 13 13 13 13 13 13 12 12 12 12 12 13 13 13 12 13 12 12 12 11 11 11 12 12 12 12 11 11 11 11 11 11 10 10 10 10 10 9
7 8 8 8 8 8 9 9 12 13 12 13 13 13 13 13 12 12 12 12 12 13 13 13 13 12 13 12 12 12 12 12 12 12 12 12 12 12 11 11 11 11 11 11 10 10 10 9 9
8 8 8 8 8 8 9 9 11 12 12 13 13 13 12 12 12 12 12 12 13 13 13 13 13 12 13 12 12 12 12 12 12 12 12 12 12 12 12 11 11 11 11 11 10 10 10 10 9
8 8 8 8 8 7 9 9 11 12 12 12 13 12 12 12 12 12 11 11 12 12 12 13 12 12 12 13 13 12 12 12 12 12 12 12 12 12 12 12 11 11 11 11 11 10 10 10 9
7 7 7 7 7 8 10 9 11 11 11 12 12 12 11 11 11 11 11 11 11 12 12 12 12 12 12 12 12 13 13 12 12 12 12 12 12 12 13 12 12 12 11 11 11 11 10 10 10
7 7 7 7 8 9 9 10 11 10 11 11 11 11 10 10 11 10 11 11 11 12 12 12 13 13 12 13 13 13 13 12 12 12 12 12 12 13 13 13 12 12 12 11 11 10 10 10 10
6 7 7 7 7 7 9 10 10 10 10 10 10 10 9 9 10 10 10 10 11 11 12 12 13 13 13 13 13 13 13 12 13 13 12 12 12 12 13 13 12 12 12 11 11 11 10 10 10
6 6 6 6 6 7 9 9 10 9 9 9 9 9 8 8 9 9 9 10 10 11 11 12 12 13 13 13 13 13 13 13 13 13 12 13 13 12 12 13 12 12 12 11 11 11 10 10 10
5 5 5 6 6 7 8 9 10 9 9 9 9 8 8 8 8 8 9 9 10 10 11 11 12 12 12 13 13 13 13 13 13 13 13 13 13 12 12 13 12 12 12 11 11 11 10 10 10
5 5 5 5 5 6 7 9 9 9 9 9 8 8 7 7 7 8 8 8 9 9 10 10 11 11 12 12 13 13 13 13 13 13 13 13 12 12 12 12 12 12 12 11 11 11 11 10 10
Wind_Speed
5 4 4 4 6 9 19 16 13 10 8 8 8 8 9 12 8 3 3 8 12 17 22 26 26 26 25 24 23 22 22 21 20 20 19 19 18 17 17 17 16 16 16 16 16 16 16 16 16
4 5 5 6 10 17 18 19 19 16 8 5 8 10 11 12 9 4 1 9 14 18 21 24 26 26 25 24 23 23 22 21 20 20 19 19 19 18 17 17 16 16 16 16 16 16 16 16 15
4 6 6 7 14 22 19 11 14 13 10 8 7 8 10 8 6 4 2 10 14 17 21 23 26 25 25 24 24 23 22 21 20 20 19 19 18 18 17 17 16 16 16 16 16 16 15 15 15
4 6 6 12 25 26 21 12 7 10 10 10 10 8 6 4 3 2 3 10 14 17 20 24 26 26 25 24 24 23 22 21 20 20 19 19 18 17 17 17 16 16 16 16 16 15 15 14 14
5 6 12 19 29 25 20 17 12 12 12 11 12 11 9 5 3 3 6 10 14 16 19 24 26 26 25 24 24 23 22 21 20 20 19 19 18 18 18 17 16 16 16 16 16 14 14 13 13
6 7 13 23 28 24 20 17 16 17 15 12 12 15 12 5 4 4 7 10 13 15 18 22 25 25 24 24 24 23 22 21 21 20 19 19 19 18 17 17 16 15 15 15 15 14 13 13 12
8 10 19 24 25 23 20 16 18 18 17 15 11 14 12 7 4 4 7 10 12 15 17 18 23 24 23 23 23 23 22 21 20 20 19 19 19 18 17 16 16 15 14 14 14 13 13 12 11
7 7 17 22 23 23 16 14 16 18 18 13 12 12 11 4 3 6 7 9 12 14 16 18 20 22 22 22 23 22 22 21 20 20 19 18 18 17 17 16 15 15 14 13 13 13 12 11 10
7 11 19 21 20 18 13 14 14 13 15 14 13 14 10 4 6 7 8 10 12 14 15 17 18 19 20 20 22 22 21 20 20 18 19 18 16 16 15 15 15 14 13 13 12 12 12 11 10
9 15 22 18 17 16 15 16 15 13 16 16 14 12 7 8 10 12 13 15 16 17 18 17 18 18 18 17 19 18 18 19 18 17 19 16 14 13 13 15 14 13 13 12 12 12 12 8 8
11 17 18 18 16 15 15 16 15 17 19 18 16 12 8 10 13 15 16 17 17 17 16 17 17 17 17 14 14 12 13 15 16 17 17 14 13 12 12 12 12 12 12 11 11 10 8 6 5
13 19 18 17 14 14 16 15 17 20 20 15 15 12 12 14 16 17 17 17 16 16 17 17 17 16 16 15 13 13 11 11 11 15 17 14 10 10 11 9 10 10 9 8 8 6 7 6 6
17 17 17 16 16 16 16 19 20 22 18 14 13 13 15 17 17 17 16 16 16 16 17 17 17 17 16 14 12 12 12 12 13 13 15 14 10 10 10 9 9 9 9 9 7 7 7 6 6
12 15 16 17 17 14 16 19 19 21 16 14 14 16 17 18 18 17 16 17 17 17 17 17 17 18 17 14 13 12 12 12 13 13 15 15 12 10 10 9 9 9 9 8 8 7 6 5 5
11 15 16 16 15 10 11 17 20 18 14 15 16 16 17 18 18 19 19 18 17 18 18 17 17 17 18 16 15 12 12 13 12 12 16 16 14 13 11 9 9 9 9 9 7 7 6 5 5
9 10 11 11 12 9 9 18 17 13 14 16 16 16 16 17 19 18 18 18 17 17 18 18 14 17 18 16 15 12 13 13 12 13 14 16 15 14 11 9 9 10 9 8 7 6 6 5 5
7 9 13 12 9 8 11 18 16 13 14 15 15 16 16 16 17 17 17 18 17 17 18 18 17 17 17 16 14 13 13 13 12 13 13 15 16 15 12 9 9 11 9 8 7 7 7 6 5
9 11 13 13 9 10 15 20 18 14 14 15 15 15 15 15 16 15 15 17 17 17 18 19 18 16 16 14 13 11 12 12 12 12 13 16 15 16 14 10 11 11 9 8 8 8 7 5 5
10 12 14 14 10 10 17 21 20 17 16 17 16 15 15 16 15 13 14 15 16 16 18 19 18 17 15 14 14 14 14 13 12 12 15 16 16 17 14 10 11 11 10 10 10 8 8 6 5
10 11 13 11 8 9 15 19 19 16 16 16 16 16 16 15 13 12 13 14 15 17 18 19 20 19 18 15 15 13 13 11 12 11 14 17 17 17 14 14 11 12 10 11 11 10 7 6 6
10 11 11 11 10 9 12 14 14 13 14 14 15 15 16 14 14 12 12 14 15 18 19 18 20 19 19 18 13 11 10 9 10 13 13 16 17 17 16 15 13 12 12 11 12 12 11 8 7
9 7 9 9 8 6 6 9 11 9 10 11 12 12 13 13 12 11 11 13 15 17 17 19 19 19 19 18 17 18 16 15 15 14 13 15 17 17 17 16 15 14 12 12 12 12 11 10 8
7 7 9 10 9 9 9 8 8 6 9 10 10 10 10 10 10 10 10 12 14 15 15 17 18 19 19 20 21 20 18 16 13 14 16 16 16 17 17 17 16 15 13 14 13 13 13 10 9
5 6 7 7 6 7 8 8 7 4 6 7 7 8 8 8 8 8 8 8 10 11 13 15 17 18 19 20 22 22 22 19 17 17 16 15 13 14 18 17 16 16 14 14 14 14 15 12 11
3 2 2 3 4 6 4 7 7 4 5 6 6 6 5 6 6 7 7 7 8 10 12 14 17 18 18 20 22 24 23 22 21 19 18 16 14 14 18 18 17 16 15 15 14 14 14 14 13
5 4 3 4 5 6 5 8 4 3 4 5 5 5 6 6 5 6 6 7 8 9 12 14 16 17 18 20 21 22 22 18 17 19 17 17 15 16 18 19 18 18 17 15 15 13 14 13 13
3 4 4 5 6 7 6 6 6 5 6 7 7 7 7 7 6 6 6 6 7 8 10 12 15 17 17 19 20 20 21 20 19 19 18 16 15 15 18 19 19 18 17 17 15 13 14 13 13
6 3 3 4 4 6 7 8 5 4 6 7 8 8 9 9 8 7 6 6 7 7 7 10 13 15 17 17 18 16 19 20 20 18 19 19 18 17 17 18 19 18 18 17 16 13 13 14 13
5 4 4 4 4 6 7 6 2 4 5 6 7 8 9 10 10 8 7 6 6 6 6 7 10 13 13 15 16 17 18 18 19 19 20 19 18 18 18 18 18 18 18 17 16 15 14 15 14
7 7 6 5 6 6 8 7 3 3 6 7 8 8 9 10 10 9 8 7 6 5 5 6 7 10 12 13 14 16 17 18 18 19 19 19 19 18 18 18 18 18 18 17 17 16 15 15 15
Wind_Direction
263 207 188 195 216 230 237 231 229 227 226 227 217 214 224 222 218 235 69 163 162 163 166 166 164 162 160 158 156 152 151 149 148 146 144 140 137 134 133 130 128 126 123 118 114 111 107 103 101
245 191 189 208 227 232 238 233 231 232 233 215 215 227 234 236 242 282 135 160 164 164 166 167 163 162 161 159 156 153 152 151 149 147 144 142 140 138 136 133 131 127 123 119 114 112 110 107 104
226 202 204 213 228 232 236 227 235 236 236 228 226 233 237 239 231 235 139 162 167 167 168 165 163 162 161 160 158 155 153 152 150 148 147 145 143 141 139 135 132 128 125 121 117 113 110 110 107
203 198 217 229 233 233 240 238 236 237 231 232 240 241 232 246 266 258 160 170 172 170 169 165 164 164 162 161 159 157 155 154 153 151 149 147 145 143 138 135 133 130 128 125 121 117 113 112 110
219 213 219 231 239 240 240 246 247 245 240 233 236 247 248 240 250 236 190 180 177 173 171 167 166 165 163 162 160 158 157 156 155 153 151 149 145 141 137 135 134 133 131 128 124 122 119 116 114
212 218 226 235 240 241 240 241 244 248 247 245 242 249 255 249 242 219 192 185 179 175 172 168 167 165 164 164 162 160 159 158 157 155 153 149 146 143 140 138 136 136 134 131 128 127 123 120 115
224 226 237 243 247 246 242 239 240 245 246 245 247 254 256 244 229 192 184 181 178 177 174 171 170 168 166 164 162 161 160 159 158 157 154 150 148 145 143 141 139 139 137 134 133 131 127 123 119
237 239 244 244 247 249 244 240 244 247 253 256 251 250 253 239 175 177 179 181 179 180 180 176 174 172 170 167 162 161 161 159 159 156 151 148 148 148 145 145 144 143 141 140 138 135 130 126 122
227 235 240 241 247 253 252 247 246 254 254 255 252 260 278 225 188 184 187 188 184 185 186 183 178 174 171 169 164 163 162 160 157 156 150 151 156 153 152 147 147 147 145 144 142 138 133 129 124
217 235 242 248 256 263 260 257 256 249 248 249 251 255 248 211 203 198 198 195 191 190 190 187 183 176 171 167 166 168 167 165 167 165 163 165 161 156 149 142 146 146 146 145 141 136 139 150 142
225 240 251 256 262 267 263 258 257 252 249 248 251 248 231 223 216 211 209 205 198 193 191 190 185 179 173 169 168 168 168 168 170 169 168 164 158 152 153 154 153 154 156 155 147 153 158 162 151
242 246 253 260 264 265 263 259 255 251 251 258 256 246 231 226 225 220 216 211 205 199 195 194 187 183 177 172 170 169 169 169 169 171 169 166 163 163 162 164 164 164 165 159 164 165 164 166 166
245 250 253 260 264 261 263 258 255 254 256 262 258 242 232 231 229 227 223 217 208 204 200 196 192 186 181 176 173 173 173 172 171 170 173 172 168 169 167 167 167 168 166 166 168 172 170 173 173
254 256 260 262 260 261 259 263 254 251 252 252 251 244 238 235 232 227 224 219 212 207 203 197 195 190 184 180 177 176 175 173 173 174 178 177 174 173 172 170 170 170 171 172 176 179 178 179 182
263 262 261 253 254 258 271 265 251 249 247 251 251 248 243 239 233 227 222 220 214 208 203 199 198 192 188 184 180 178 176 176 176 177 180 180 178 176 175 175 174 173 174 175 179 180 185 182 184
254 250 252 252 245 248 252 260 258 253 249 253 254 249 244 240 234 229 224 221 217 209 204 201 198 195 191 186 181 178 179 179 178 179 181 183 181 180 180 178 179 176 176 179 181 184 188 189 196
233 248 258 265 246 247 248 266 268 256 248 250 251 249 244 242 237 230 224 218 215 210 204 201 198 197 193 187 182 180 180 182 182 182 184 185 185 185 185 185 183 180 182 186 186 191 194 194 198
260 263 265 264 264 264 260 268 275 261 248 249 251 251 245 243 239 231 224 217 214 209 204 200 198 199 193 187 182 180 182 186 186 186 188 186 188 189 190 189 187 185 187 190 191 192 196 199 197
271 266 269 275 278 272 270 271 274 266 251 247 247 250 247 244 242 233 225 217 212 207 203 199 198 197 191 188 184 184 187 187 189 190 190 190 191 191 193 191 190 191 194 194 194 192 192 195 193
269 269 272 282 283 278 278 276 271 261 247 244 244 245 248 245 239 231 222 214 210 208 205 202 200 198 195 194 190 191 189 190 191 190 194 195 195 194 195 195 193 194 196 196 197 193 194 190 193
271 268 276 287 295 282 284 278 264 255 250 247 246 245 245 241 235 229 221 216 212 210 207 203 201 201 198 196 189 185 184 185 191 195 196 198 197 197 197 197 196 196 198 199 199 197 197 195 196
277 274 277 281 279 282 274 283 277 266 253 248 245 245 244 239 236 231 223 219 217 213 208 204 201 202 201 196 192 188 191 195 198 195 196 197 198 199 200 200 200 199 201 202 202 202 202 201 200
267 283 273 272 269 274 261 260 270 266 257 253 247 246 248 243 239 236 227 224 223 217 208 204 202 202 202 199 195 194 201 204 199 195 196 197 198 201 202 201 202 202 204 206 204 202 204 205 208
269 281 273 258 251 252 249 249 267 254 262 268 261 254 251 246 239 237 233 230 230 219 210 205 204 204 202 202 200 199 202 202 198 196 196 197 198 201 202 202 204 206 206 206 206 205 206 208 211
231 274 281 246 230 249 256 253 258 282 288 279 278 276 282 270 251 242 240 231 233 222 213 208 206 206 205 203 204 203 204 204 202 199 199 197 199 200 202 201 205 206 207 206 205 206 208 210 211
240 239 255 274 270 285 269 248 260 324 321 312 310 316 318 309 285 265 251 238 234 227 216 211 209 209 207 206 207 206 205 205 206 204 202 201 202 203 202 202 205 207 206 205 204 207 210 211 213
237 231 264 273 279 271 252 262 278 307 328 339 342 344 338 329 318 296 276 261 251 240 225 217 212 211 209 209 208 209 206 206 206 205 204 205 206 204 202 201 204 206 205 205 204 209 209 210 213
240 267 240 232 261 265 263 266 271 308 327 343 347 343 338 334 327 320 305 286 269 253 242 228 220 215 213 210 209 210 208 208 207 205 205 206 205 203 202 201 203 204 204 204 204 208 210 209 211
224 225 233 237 251 269 272 270 292 307 328 331 332 332 332 332 328 322 316 305 288 271 249 236 230 222 217 214 210 210 210 209 208 207 208 207 206 203 203 202 202 202 203 202 204 206 206 209 210
242 238 232 243 249 254 271 272 296 296 321 327 327 330 331 330 330 325 318 317 310 294 267 248 239 232 225 217 213 212 210 208 208 209 209 207 207 205 203 202 202 202 202 201 203 205 206 208 210
Height
1511 1513 1515 1517 1516 1508 1495 1485 1484 1486 1487 1487 1488 1488 1485 1484 1485 1487 1484 1482 1483 1485 1488 1491 1495 1499 1502 1505 1509 1512 1515 1517 1519 1521 1523 1524 1525 1527 1528 1529 1530 1531 1532 1533 1533 1534 1534 1534 1534
1509 1511 1515 1514 1507 1498 1485 1480 1482 1484 1485 1487 1488 1487 1485 1483 1483 1483 1481 1481 1483 1485 1488 1491 1494 1498 1502 1505 1508 1511 1514 1517 1519 1521 1523 1524 1526 1527 1528 1529 1530 1531 1532 1533 1534 1534 1535 1535 1535
1507 1509 1511 1506 1496 1484 1475 1476 1479 1482 1485 1486 1485 1485 1483 1481 1482 1482 1480 1481 1483 1485 1488 1491 1494 1498 1501 1505 1508 1511 1513 1516 1519 1521 1522 1524 1526 1527 1529 1530 1531 1532 1533 1534 1534 1535 1535 1536 1536
1506 1508 1506 1499 1483 1474 1474 1475 1480 1481 1483 1484 1484 1482 1481 1481 1480 1480 1479 1480 1482 1485 1487 1490 1494 1497 1501 1504 1507 1510 1513 1515 1518 1520 1522 1524 1526 1527 1529 1530 1531 1532 1533 1534 1535 1536 1536 1536 1537
1503 1502 1497 1488 1475 1471 1474 1477 1480 1479 1479 1481 1482 1478 1477 1478 1477 1477 1478 1479 1482 1484 1487 1490 1493 1497 1500 1504 1507 1509 1512 1515 1517 1520 1522 1524 1525 1527 1528 1530 1531 1532 1534 1535 1535 1536 1537 1537 1537
1500 1495 1488 1476 1468 1469 1472 1476 1479 1477 1477 1478 1479 1477 1475 1475 1475 1476 1477 1478 1481 1483 1486 1489 1492 1496 1500 1503 1506 1509 1512 1514 1517 1519 1521 1523 1525 1527 1528 1530 1531 1533 1534 1535 1536 1537 1538 1538 1538
1495 1490 1478 1470 1466 1466 1469 1474 1475 1474 1473 1475 1476 1474 1472 1474 1473 1473 1475 1477 1480 1482 1485 1488 1492 1495 1499 1502 1505 1508 1511 1514 1516 1518 1521 1523 1525 1527 1528 1530 1531 1533 1534 1535 1536 1537 1538 1539 1539
1491 1488 1476 1469 1466 1463 1467 1471 1473 1473 1471 1473 1474 1471 1469 1471 1471 1472 1474 1476 1478 1481 1484 1487 1490 1494 1497 1501 1504 1507 1510 1513 1515 1518 1520 1522 1525 1526 1528 1530 1531 1533 1534 1535 1536 1538 1538 1539 1540
1489 1486 1471 1466 1465 1463 1467 1469 1470 1471 1471 1470 1470 1469 1469 1469 1469 1470 1472 1474 1476 1479 1482 1485 1488 1492 1495 1499 1502 1506 1509 1512 1514 1517 1519 1522 1524 1526 1528 1530 1531 1533 1534 1535 1537 1538 1539 1540 1540
1484 1476 1465 1465 1466 1465 1466 1467 1468 1468 1466 1466 1466 1466 1466 1466 1467 1468 1469 1470 1473 1475 1479 1482 1486 1489 1493 1496 1500 1504 1507 1510 1513 1516 1518 1521 1524 1526 1527 1529 1531 1533 1534 1535 1536 1538 1539 1540 1541
1477 1470 1466 1466 1467 1466 1465 1465 1466 1464 1460 1461 1461 1462 1463 1464 1464 1465 1466 1468 1469 1472 1475 1479 1483 1486 1490 1493 1497 1501 1504 1508 1511 1514 1517 1519 1522 1524 1526 1528 1530 1532 1533 1535 1536 1538 1539 1540 1541
1472 1468 1467 1466 1466 1466 1464 1463 1462 1459 1456 1458 1458 1459 1459 1460 1460 1461 1463 1465 1468 1470 1472 1476 1480 1483 1487 1491 1494 1498 1501 1505 1508 1511 1514 1517 1520 1522 1524 1527 1529 1531 1532 1534 1535 1537 1538 1540 1540
1468 1465 1465 1464 1464 1463 1462 1459 1456 1453 1453 1454 1454 1454 1454 1455 1456 1458 1460 1462 1464 1466 1469 1472 1476 1480 1483 1487 1491 1495 1499 1502 1506 1509 1512 1515 1517 1520 1523 1525 1527 1529 1531 1532 1534 1536 1537 1539 1540
1464 1463 1462 1461 1460 1459 1457 1453 1451 1445 1449 1449 1449 1449 1450 1450 1452 1454 1456 1457 1460 1462 1465 1468 1472 1476 1480 1484 1488 1492 1496 1500 1503 1506 1509 1512 1515 1518 1521 1523 1525 1527 1529 1531 1533 1535 1536 1538 1539
1464 1461 1457 1455 1455 1455 1455 1447 1442 1441 1444 1444 1444 1444 1445 1445 1447 1448 1449 1452 1454 1458 1461 1464 1468 1472 1476 1480 1484 1489 1493 1497 1500 1504 1507 1510 1513 1516 1519 1521 1523 1525 1527 1529 1532 1534 1535 1536 1537
1460 1457 1452 1448 1450 1451 1454 1441 1436 1438 1439 1438 1439 1439 1439 1440 1441 1443 1445 1447 1450 1454 1457 1460 1464 1468 1472 1476 1480 1485 1489 1493 1497 1501 1504 1507 1510 1513 1516 1519 1521 1523 1525 1527 1529 1531 1533 1535 1536
1453 1450 1445 1444 1444 1446 1448 1438 1433 1435 1435 1434 1434 1433 1434 1435 1436 1437 1439 1442 1445 1448 1452 1455 1459 1463 1468 1472 1476 1481 1486 1490 1494 1497 1501 1504 1507 1510 1514 1516 1519 1521 1523 1525 1527 1530 1532 1533 1534
1447 1445 1443 1441 1441 1443 1440 1434 1430 1430 1430 1429 1429 1429 1429 1429 1430 1432 1435 1437 1440 1444 1447 1451 1454 1459 1463 1468 1472 1477 1481 1486 1489 1493 1497 1501 1504 1507 1511 1513 1516 1518 1521 1523 1525 1527 1529 1531 1532
1451 1446 1443 1439 1438 1440 1436 1431 1426 1425 1425 1423 1423 1423 1423 1424 1426 1428 1430 1433 1435 1438 1442 1445 1449 1453 1458 1462 1465 1470 1475 1480 1485 1489 1493 1497 1500 1504 1507 1510 1513 1515 1518 1520 1523 1525 1527 1528 1530
1451 1448 1441 1437 1437 1437 1431 1425 1421 1419 1418 1417 1417 1418 1418 1419 1421 1423 1424 1426 1429 1432 1435 1439 1444 1448 1452 1456 1460 1466 1471 1476 1481 1485 1489 1492 1496 1500 1503 1506 1509 1512 1515 1517 1520 1522 1524 1525 1527
1447 1445 1441 1438 1435 1433 1430 1419 1413 1411 1412 1413 1413 1413 1413 1414 1416 1418 1419 1421 1423 1426 1429 1433 1437 1441 1446 1451 1456 1462 1467 1472 1476 1479 1483 1487 1491 1495 1499 1502 1505 1508 1511 1513 1516 1518 1520 1522 1524
1444 1441 1442 1439 1437 1432 1430 1421 1407 1404 1406 1406 1407 1407 1408 1410 1412 1413 1414 1416 1418 1420 1424 1428 1432 1436 1441 1445 1450 1454 1459 1463 1467 1473 1478 1482 1487 1490 1494 1498 1501 1504 1507 1509 1512 1514 1517 1519 1520
1443 1442 1441 1438 1435 1433 1426 1424 1405 1402 1402 1402 1403 1404 1404 1405 1407 1408 1410 1411 1413 1416 1419 1422 1427 1430 1435 1439 1444 1449 1454 1459 1465 1469 1473 1477 1481 1485 1489 1493 1496 1499 1502 1505 1508 1510 1512 1514 1516
1444 1442 1437 1434 1433 1432 1418 1418 1404 1400 1401 1400 1400 1401 1402 1403 1404 1405 1406 1408 1410 1412 1414 1417 1421 1424 1428 1433 1438 1442 1448 1454 1459 1463 1467 1471 1475 1479 1483 1487 1491 1494 1497 1500 1503 1505 1508 1510 1512
1443 1441 1436 1432 1429 1420 1412 1413 1403 1401 1402 1400 1399 1399 1400 1400 1401 1401 1402 1403 1405 1407 1409 1412 1415 1418 1422 1427 1431 1436 1442 1447 1452 1456 1461 1465 1469 1472 1476 1480 1484 1488 1491 1495 1498 1500 1503 1505 1507
1441 1441 1439 1434 1423 1413 1414 1408 1401 1403 1402 1401 1400 1399 1399 1399 1398 1399 1399 1400 1401 1402 1404 1406 1409 1413 1417 1420 1425 1430 1436 1441 1446 1451 1455 1459 1462 1466 1471 1475 1478 1482 1486 1489 1492 1495 1498 1500 1502
1441 1439 1438 1437 1429 1423 1409 1403 1401 1402 1401 1400 1400 1399 1398 1398 1397 1397 1397 1397 1397 1398 1400 1401 1404 1407 1410 1414 1419 1423 1429 1434 1438 1444 1449 1453 1457 1461 1465 1469 1473 1476 1480 1483 1486 1489 1492 1495 1497
1443 1441 1440 1438 1432 1418 1406 1401 1399 1400 1400 1401 1401 1400 1399 1397 1396 1395 1395 1394 1394 1395 1396 1397 1399 1402 1405 1409 1413 1417 1422 1427 1432 1437 1442 1446 1450 1455 1459 1462 1466 1470 1474 1477 1480 1483 1486 1489 1491
1442 1442 1439 1434 1431 1422 1409 1401 1400 1401 1402 1401 1401 1401 1399 1397 1395 1393 1393 1392 1392 1392 1392 1393 1395 1398 1401 1404 1407 1411 1416 1420 1425 1430 1435 1439 1444 1448 1452 1456 1460 1464 1467 1471 1474 1477 1480 1483 1485
1440 1438 1437 1436 1431 1426 1416 1405 1401 1402 1402 1402 1401 1400 1398 1396 1394 1392 1391 1389 1389 1388 1389 1389 1391 1393 1395 1398 1402 1405 1410 1414 1418 1423 1428 1433 1437 1441 1445 1449 1453 1457 1461 1464 1468 1471 1474 1477 1479